This demonstration page uses our WeatherBlox Daily Observations layout. Learn more.

Left ArrowRight Arrow

41.55636, -103.73856

Hourly Observations for March 25, 2021

Temp ( °F °C ) Dew Point ( °F °C ) Humidity (%) Winds ( mph kmh ) Pressure ( in mb ) Visibility ( mi km ) Precip ( " mm )
12:58 am 00:58 Clear 24 -4.5 19 -7 83 83 S 14 22 29.82 1010 10 16 0.00 0.00
1:58 am 01:58 Clear 22 -5.7 18 -7.9 85 85 SSW 10 17 29.80 1009 10 16 0.00 0.00
2:58 am 02:58 Clear 24 -4.5 20 -6.9 84 84 SW 16 26 29.76 1008 10 16 0.00 0.00
3:58 am 03:58 Clear 24 -4.6 20 -6.8 85 85 SW 20 31 29.75 1008 10 16 0.00 0.00
4:58 am 04:58 Clear 24 -4.2 18 -7.9 76 76 W 9 15 29.75 1008 10 16 0.00 0.00
5:58 am 05:58 Clear 28 -2.4 16 -8.8 62 62 W 18 30 29.72 1007 10 16 0.00 0.00
6:58 am 06:58 Sunny 27 -3 16 -8.8 65 65 W 13 20 29.76 1008 10 16 0.00 0.00
7:58 am 07:58 Sunny 26 -3.5 17 -8.6 68 68 W 12 19 29.78 1008 10 16 0.00 0.00
8:58 am 08:58 Sunny 31 -0.4 19 -7 61 61 W 8 13 29.76 1008 10 16 0.00 0.00
9:58 am 09:58 Sunny 33 0.6 22 -5.7 63 63 W 7 11 29.75 1008 10 16 0.00 0.00
10:56 am 10:56 Sunny 36 2.1 24 -4.5 62 62 WSW 7 11 29.75 1007 10 16 0.00 0.00
11:56 am 11:56 Sunny 38 3.1 24 -4.7 57 57 SW 9 15 29.75 1007 10 16 0.00 0.00
1:58 pm 13:58 Sunny 40 4.6 28 -2.5 60 60 S 9 15 29.72 1007 10 16 0.00 0.00
2:58 pm 14:58 Sunny 43 5.9 26 -3.2 52 52 SSW 8 13 29.69 1005 10 16 0.00 0.00
3:58 pm 15:58 Mostly Sunny 44 6.5 23 -4.9 44 44 Calm 29.69 1005 10 16 0.00 0.00
4:58 pm 16:58 Mostly Sunny 41 5 26 -3.4 55 55 NW 7 11 29.70 1006 10 16 0.00 0.00
5:58 pm 17:58 Partly Cloudy 39 3.9 27 -2.6 63 63 NW 8 13 29.70 1006 10 16 0.00 0.00
6:58 pm 18:58 Sunny 39 3.8 26 -3.2 61 61 N 6 9 29.71 1006 10 16 0.00 0.00
7:58 pm 19:58 Clear 34 1.1 25 -3.8 70 70 NW 3 6 29.75 1007 10 16 0.00 0.00
8:58 pm 20:58 Mostly Cloudy 33 0.6 26 -3.1 77 77 WNW 8 13 29.75 1008 10 16 0.00 0.00
10:58 pm 22:58 Mostly Cloudy 39 4.1 26 -3.5 58 58 SW 9 15 29.72 1007 10 16 0.00 0.00
11:58 pm 23:58 Mostly Cloudy 39 3.9 24 -4.2 56 56 Calm 29.73 1007 10 16 0.00 0.00

Powered by AerisWeather